Starlink 30523

operational
NORAD ID: 57997 Int'l Des: 2023-153 Owner: SPXS Country: US Constellation: starlink
LEOCIRCULAR

关于 Starlink 30523

正在加载描述...

实时位置

正在加载3D地球...

即将过境

高度历史

Altitude vs Time

uPlot chart will show altitude changes over time

两行轨道根数

1 57997U 23153G 25303.72566455 .00002459 00000-0 19699-3 0 9991
2 57997 43.0025 55.1770 0001709 277.8539 82.2110 15.02549744115323
Epoch: Oct 30, 2025 • Age: 11 hours

当前状态

高度 562.1 km
速度 7.59 km/s
星下点 38.24°N, 3.05°W
发射日期 Oct 5, 2023
运行时间 2 years
类型 internet

技术详情

分类 Payload
质量 730.00 kg
干质量 700.00 kg
总质量 730.00 kg
长度 0.30 m
直径 4.10 m
跨度 29.00 m
形状 Box + pan
制造商 SPXS
平台类型 Starlink V2M
阶段状态 In Orbit
所有者/国家 SPXS/US

大型星座

Loading constellations...